This demonstration page uses our WeatherBlox Daily Observations layout. Learn more.

Hourly Observations for October 1, 2020

Temp ( °F °C ) Dew Point ( °F °C ) Humidity (%) Winds ( mph kmh ) Pressure ( in mb ) Visibility ( mi km ) Precip ( " mm )
12:15 am 00:15 Mostly Cloudy 51 10.8 28 -2.5 40 40 W 8 13 30.26 1025 10 16.0934 0 0
12:35 am 00:35 Cloudy 55 12.9 25 -4 31 31 WNW 12 19 30.24 1024 10 16.0934 0 0
12:55 am 00:55 Cloudy 55 12.8 24 -4.2 31 31 WNW 10 17 30.26 1025 10 16.0934 0 0
1:15 am 01:15 Cloudy 53 11.8 26 -3.5 34 34 NW 10 17 30.27 1025 10 16.0934 0 0
1:35 am 01:35 Mostly Cloudy 53 11.6 25 -3.7 34 34 NW 12 19 30.28 1025 10 16.0934 0 0
1:55 am 01:55 Mostly Cloudy 52 11.1 25 -3.8 35 35 WNW 9 15 30.29 1026 10 16.0934 0 0
2:15 am 02:15 Mostly Cloudy 50 10 26 -3.3 39 39 WNW 9 15 30.31 1026 10 16.0934 0 0
2:35 am 02:35 Cloudy 50 10.2 26 -3.3 39 39 WNW 10 17 30.31 1026 10 16.0934 0 0
2:55 am 02:55 Cloudy 50 10 26 -3.1 40 40 WNW 9 15 30.31 1026 10 16.0934 0 0
3:15 am 03:15 Mostly Cloudy 50 10.2 26 -3.5 38 38 NW 13 20 30.31 1026 10 16.0934 0 0
3:35 am 03:35 Partly Cloudy 50 9.8 25 -3.7 39 39 NW 10 17 30.32 1027 10 16.0934 0 0
3:55 am 03:55 Clear 47 8.5 26 -3.5 43 43 NNW 10 17 30.34 1027 10 16.0934 0 0
4:15 am 04:15 Clear 45 7.3 26 -3.3 47 47 NW 10 17 30.36 1028 10 16.0934 0 0
4:35 am 04:35 Clear 42 5.5 27 -3 55 55 NW 8 13 30.38 1029 10 16.0934 0 0
4:55 am 04:55 Clear 40 4.7 27 -2.9 58 58 NW 8 13 30.4 1030 10 16.0934 0 0
5:15 am 05:15 Clear 39 3.9 26 -3.2 60 60 NW 8 13 30.41 1030 10 16.0934 0 0
5:35 am 05:35 Clear 40 4.4 26 -3.2 58 58 WNW 8 13 30.41 1030 10 16.0934 0 0
5:55 am 05:55 Clear 38 3.1 27 -3 65 65 WNW 8 13 30.44 1031 10 16.0934 0 0
6:15 am 06:15 Clear 39 3.7 26 -3.1 61 61 W 10 17 30.44 1031 10 16.0934 0 0
6:35 am 06:35 Clear 40 4.3 26 -3.1 59 59 WNW 9 15 30.44 1031 10 16.0934 0 0
6:55 am 06:55 Clear 39 4.1 26 -3.1 60 60 W 9 15 30.45 1031 10 16.0934 0 0
7:15 am 07:15 Clear 39 4 26 -3.1 60 60 WNW 9 15 30.45 1031 10 16.0934 0 0
7:35 am 07:35 Clear 38 3.4 27 -3 63 63 WNW 7 11 30.46 1032 10 16.0934 0 0
7:55 am 07:55 Sunny 37 2.8 27 -2.7 67 67 WNW 8 13 30.48 1032 10 16.0934 0 0
8:15 am 08:15 Sunny 38 3.4 27 -2.6 65 65 W 8 13 30.47 1032 10 16.0934 0 0
8:35 am 08:35 Sunny 40 4.5 28 -2.3 62 62 WNW 9 15 30.46 1032 10 16.0934 0 0
8:55 am 08:55 Sunny 42 5.3 28 -2 60 60 WNW 9 15 30.47 1032 10 16.0934 0 0
9:15 am 09:15 Sunny 45 7.1 29 -1.6 54 54 NW 9 15 30.46 1031 10 16.0934 0 0
9:35 am 09:35 Sunny 48 8.7 28 -2.1 47 47 NNW 13 20 30.44 1031 10 16.0934 0 0
9:55 am 09:55 Sunny 49 9.4 28 -2 45 45 NNW 14 22 30.44 1031 10 16.0934 0 0
10:15 am 10:15 Sunny 50 10.2 29 -1.8 43 43 NNW 13 20 30.43 1030 10 16.0934 0 0
10:35 am 10:35 Sunny 52 11.1 28 -2 40 40 NNW 16 26 30.43 1031 10 16.0934 0 0
10:55 am 10:55 Sunny 53 11.6 29 -1.7 40 40 NNW 16 26 30.43 1030 10 16.0934 0 0
11:15 am 11:15 Sunny 54 12.1 28 -2 38 38 NNW 21 33 30.42 1030 10 16.0934 0 0
11:35 am 11:35 Sunny 54 12.3 29 -1.9 38 38 N 17 28 30.41 1030 10 16.0934 0 0
11:55 am 11:55 Sunny 56 13.2 29 -1.8 36 36 N 18 30 30.4 1030 10 16.0934 0 0
12:15 pm 12:15 Sunny 56 13.5 28 -2 34 34 N 17 28 30.4 1029 10 16.0934 0 0
12:35 pm 12:35 Sunny 57 13.7 29 -1.9 34 34 NNW 15 24 30.4 1029 10 16.0934 0 0
12:55 pm 12:55 Sunny 57 13.8 28 -2.2 33 33 NNW 15 24 30.39 1029 10 16.0934 0 0
1:15 pm 13:15 Sunny 58 14.2 28 -2 33 33 NNW 15 24 30.37 1029 10 16.0934 0 0
1:35 pm 13:35 Sunny 59 14.8 29 -1.8 32 32 NW 18 30 30.36 1028 10 16.0934 0 0
1:55 pm 13:55 Sunny 59 14.9 28 -2.5 30 30 NNW 17 28 30.35 1028 10 16.0934 0 0
2:15 pm 14:15 Sunny 59 15 27 -2.7 30 30 NNW 14 22 30.34 1027 10 16.0934 0 0
2:35 pm 14:35 Sunny 60 15.4 27 -2.8 29 29 NNW 20 31 30.32 1027 10 16.0934 0 0
2:55 pm 14:55 Sunny 60 15.6 27 -2.9 28 28 NNW 16 26 30.31 1026 10 16.0934 0 0
3:15 pm 15:15 Sunny 60 15.5 27 -3 28 28 NNW 15 24 30.3 1026 10 16.0934 0 0
3:35 pm 15:35 Sunny 60 15.5 27 -2.9 28 28 N 9 15 30.29 1026 10 16.0934 0 0
3:55 pm 15:55 Sunny 61 16 27 -3 27 27 NNW 12 19 30.29 1026 10 16.0934 0 0
4:15 pm 16:15 Sunny 60 15.6 26 -3.2 27 27 NW 12 19 30.28 1025 10 16.0934 0 0
4:35 pm 16:35 Sunny 61 16 26 -3.4 26 26 NW 14 22 30.28 1025 10 16.0934 0 0
4:55 pm 16:55 Sunny 61 15.9 26 -3.3 27 27 NNW 10 17 30.27 1025 10 16.0934 0 0
5:15 pm 17:15 Sunny 61 15.9 27 -3 27 27 NNW 12 19 30.26 1025 10 16.0934 0 0
5:35 pm 17:35 Sunny 60 15.7 26 -3.4 27 27 NW 10 17 30.26 1025 10 16.0934 0 0
5:55 pm 17:55 Sunny 60 15.5 26 -3.2 28 28 N 9 15 30.26 1025 10 16.0934 0 0
6:15 pm 18:15 Sunny 59 15.1 26 -3.2 28 28 N 8 13 30.26 1025 10 16.0934 0 0
6:35 pm 18:35 Sunny 58 14.6 27 -2.7 30 30 N 6 9 30.27 1025 10 16.0934 0 0
6:55 pm 18:55 Sunny 57 13.7 28 -2.4 33 33 N 6 9 30.28 1025 10 16.0934 0 0
7:15 pm 19:15 Sunny 53 11.7 29 -1.7 40 40 N 7 11 30.3 1026 10 16.0934 0 0
7:35 pm 19:35 Clear 50 10.2 29 -1.4 45 45 NNE 5 7 30.31 1026 10 16.0934 0 0
7:55 pm 19:55 Clear 48 8.8 28 -2 47 47 NNE 6 9 30.32 1027 10 16.0934 0 0
8:15 pm 20:15 Clear 47 8.4 29 -1.6 50 50 NE 3 6 30.33 1027 10 16.0934 0 0
8:35 pm 20:35 Clear 46 8 28 -2 50 50 NE 6 9 30.33 1027 10 16.0934 0 0
8:55 pm 20:55 Clear 46 7.6 29 -1.8 52 52 NE 5 7 30.33 1027 10 16.0934 0 0
9:15 pm 21:15 Clear 45 7.2 29 -1.6 54 54 ENE 3 6 30.34 1027 10 16.0934 0 0
9:35 pm 21:35 Clear 43 6 28 -2.1 56 56 Calm 30.36 1028 10 16.0934 0 0
9:55 pm 21:55 Clear 43 5.9 29 -1.8 58 58 Calm 30.36 1028 10 16.0934 0 0
10:15 pm 22:15 Clear 42 5.3 31 -0.8 65 65 Calm 30.36 1028 10 16.0934 0 0
10:35 pm 22:35 Clear 41 4.9 29 -1.6 63 63 Calm 30.36 1028 10 16.0934 0 0
10:55 pm 22:55 Clear 40 4.5 30 -1.2 67 67 Calm 30.36 1028 10 16.0934 0 0
11:15 pm 23:15 Clear 40 4.7 30 -1 67 67 Calm 30.35 1028 10 16.0934 0 0
11:35 pm 23:35 Clear 37 2.9 27 -2.9 66 66 Calm 30.38 1029 10 16.0934 0 0
11:55 pm 23:55 Clear 36 2.1 29 -1.4 78 78 Calm 30.38 1029 10 16.0934 0 0

Powered by AerisWeather